Tracking 29594 objects as of 20-Sep-2024
HD Live streaming from Space Station
objects crossing your sky now

COSMOS 249 DEB

Track COSMOS 249 DEB now!
10-day predictions


NORAD ID: 19362
Int'l Code: 1968-091DJ
Perigee: 531.1 km
Apogee: 1,196.9 km
Inclination: 62.8 °
Period: 102.1 minutes
Semi major axis: 7235 km
RCS: 0.01 m2 (small)
Launch date: October 20, 1968
Source: Commonwealth of Independent States (former USSR) (CIS)
Launch site: TYURATAM MISSILE AND SPACE COMPLEX (TTMTR)

Note: This is SATELLITE DEBRIS
Your satellite tracking list
Your tracking list is empty




NASA's NSSDC Master Catalog

Two Line Element Set (TLE):
1 19362U 68091DJ  24263.46795865  .00004616  00000-0  97108-3 0  9997
2 19362  62.7874  67.8974 0460100 323.9522  33.1292 14.10728415829748
Source of the keplerian elements: AFSPC